Regional Weather Roundup
Issued by NWS

Home | Current Version | Previous Version | Graphics & Text | Print | Product List | Glossary On
Versions: 1 2 3 4 5 6 7 8 9 10 11 12 13 14 15 16 17 18 19 20 21 22 23 24 25 26 27 28 29 30 31 32 33 34 35 36 37 38 39 40 41 42 43 44 45 46 47 48 49 50
000
ASUS43 KMPX 282310
RWRMN
WEATHER ROUNDUP FOR MINNESOTA
NATIONAL WEATHER SERVICE TWIN CITIES/CHANHASSEN MN
600 PM CDT THU APR 28 2016


NOTE: "FAIR" INDICATES FEW OR NO CLOUDS BELOW 12,000 FEET WITH NO
SIGNIFICANT WEATHER AND/OR OBSTRUCTIONS TO VISIBILITY. N/A MEANS
CURRENT SKY AND/OR WEATHER CONDITIONS ARE NOT AVAILABLE.

MNZ060>063-068>070-290000-
   Twin Cities Metro

CITY           SKY/WX    TMP DP  RH WIND       PRES   REMARKS
TWIN CITIES    LGT RAIN  40  36  86 NE10      30.07R
ST PAUL        LGT RAIN  41  37  86 NE3       30.08R
CRYSTAL        LGT RAIN  42  37  82 E5        30.06S
BLAINE         LGT RAIN  43  41  93 E3        30.07R
EDEN PRAIRIE   LGT RAIN  41  36  82 NE8       30.05R
SOUTH ST PAUL  LGT RAIN  40  38  93 E6        30.06S
LAKE ELMO      LGT RAIN  41  37  87 CALM      30.07R
$$
MNZ001>005-007-008-013>017-022>024-027-028-290000-
   Northwest Minnesota

CITY           SKY/WX    TMP DP  RH WIND       PRES   REMARKS
BEMIDJI        MOSUNNY   54  26  33 E10       30.08R
HALLOCK        SUNNY     61  16  17 E6        30.13S
ROSEAU         SUNNY     54  25  32 E13       30.15S
WARROAD        SUNNY     52  27  37 E8        30.16S
THIEF RVR FALL MOSUNNY   54  23  30 NE13      30.13R
CROOKSTON      MOSUNNY   57  27  30 NE10G16   30.11
FOSSTON        MOSUNNY   55  27  33 NE8G18    30.10R
DETROIT LAKES  MOSUNNY   54  25  32 E10       30.07S
MOORHEAD       CLOUDY    57  23  26 SE7       30.07S
PARK RAPIDS    CLOUDY    54  22  28 NE12G17   30.06R
MAHNOMEN       FAIR      57  27  31 NE16      30.06R
$$
MNZ006-009>011-018-025>026-290000-
   North Central Minnesota

CITY           SKY/WX    TMP DP  RH WIND       PRES   REMARKS
BAUDETTE       SUNNY     55  24  30 N13       30.12R
FLAG ISLAND    SUNNY     52  19  28 N14       30.15S
INTL FALLS     SUNNY     54  26  34 NE9       30.11S
WASKISH        MOSUNNY   55  28  35 NE12      30.11S
BIG FORK       CLOUDY    55  27  33 NE5       30.09S
LONGVILLE      PTSUNNY   55  25  30 NE7       30.06R
GRAND RAPIDS   MOSUNNY   55  25  30 NE7       30.08S
CRANE LAKE     SUNNY     54  25  32 NE5       30.12S
ORR            SUNNY     54  21  28 CALM      30.08S
COOK           MOSUNNY   52  27  37 N3        30.10S
WALKER         CLOUDY    53  24  33 CALM      30.07R
$$
MNZ012-019>021-037-290000-
   Northeast Minnesota

CITY           SKY/WX    TMP DP  RH WIND       PRES   REMARKS
DULUTH         PTSUNNY   41  25  53 E15       30.10R
ELY            SUNNY     52  27  37 NE7       30.09S
HIBBING        MOSUNNY   53  25  33 N13       30.06S
EVELETH        CLOUDY    57  27  30 NE9       30.08R
DULUTH HARBOR  CLOUDY    37  36  93 NE18      30.13S
TWO HARBORS    MOSUNNY   45  30  57 E14       30.11R
SILVER BAY     MOSUNNY   45  25  45 E16       30.11S
GRAND MARAIS     N/A     39  31  72 NE8       30.14S
G MARAIS ARPRT SUNNY     45  25  45 E5        30.11S
$$
MNZ029>031-032-039>041-046>048-054>057-064-290000-
   West Central Minnesota

CITY           SKY/WX    TMP DP  RH WIND       PRES   REMARKS
FERGUS FALLS   CLOUDY    54  27  35 S5        30.05R
WHEATON        CLOUDY    46  39  76 SE6       30.11R
MORRIS         CLOUDY    45  39  81 E8        30.07S
ALEXANDRIA     CLOUDY    46  36  68 S8        30.07R
ELBOW LAKE     CLOUDY    46  38  72 SW9       30.07R
WADENA         CLOUDY    55  25  30 NE10      30.04R
GLENWOOD       DRIZZLE   43  39  87 E10       30.07S
APPLETON       CLOUDY    43  37  81 NE5       30.07R
BENSON         CLOUDY    45  37  76 NE3       30.08R
ORTONVILLE     CLOUDY    43  37  81 NE8       30.08R
MADISON        CLOUDY    39  37  93 N7        30.07S
WILLMAR        CLOUDY    45  39  81 E8        30.08R
$$
MNZ033>034-036-042>043-049>051-058-059-290000-
   Central Minnesota

CITY           SKY/WX    TMP DP  RH WIND       PRES   REMARKS
ST CLOUD       LGT RAIN  41  39  93 E3        30.07R
SAUK CENTRE    CLOUDY    43  37  79 SE6       30.07R
PAYNESVILLE    LGT RAIN  41  37  83 NE9G17    30.09R
AITKIN         CLOUDY    54  16  22 E9        30.06R
PINE RIVER     PTSUNNY   57  28  33 NE6       30.07R
BRAINERD       CLOUDY    53  21  28 E7        30.06R
STAPLES        MOSUNNY   54  19  26 E5        30.05R
LONG PRAIRIE   CLOUDY    43  36  75 SE6       30.07R
LITTLE FALLS   CLOUDY    45  36  70 CALM      30.07R
LITCHFIELD     DRIZZLE   43  39  87 NE10      30.08R
BUFFALO        LGT RAIN  41  37  86 NE8       30.08R
MAPLE LAKE     LGT RAIN  41  39  92 N6        30.08R
HUTCHINSON     CLOUDY    42  37  83 NE14      30.07R
$$
MNZ037-044-045-052-053-290000-
   East Central Minnesota

CITY           SKY/WX    TMP DP  RH WIND       PRES   REMARKS
PRINCETON      RAIN      45  39  81 CALM      30.08R
MORA           CLOUDY    48  28  46 NE6       30.08R
CAMBRIDGE      RAIN      46  36  66 CALM      30.06R
RUSH CITY      CLOUDY    47  35  64 N8        30.05F
MOOSE LAKE     CLOUDY    43  21  42 NE12G21   30.08R
HINCKLEY       CLOUDY    46  30  53 N12       30.07R
CLOQUET        MOSUNNY   43  21  42 E10       30.10S
MCGREGOR       CLOUDY    50  25  37 E15       30.08R
$$
MNZ071>073-080-081-089-090-097-098-290000-
   Southwest Minnesota

CITY           SKY/WX    TMP DP  RH WIND       PRES   REMARKS
MONTEVIDEO     CLOUDY    43  41  93 E7        30.08R
GRANITE FALLS  CLOUDY    40  38  93 NW6       30.07S
CANBY          DRIZZLE   40  39  95 NE8       30.08R
MARSHALL       CLOUDY    39  37  92 NE9       30.06R FOG
REDWOOD FALLS  CLOUDY    42  37  82 E3        30.05R
OLIVIA         CLOUDY    41  36  81 E13G21    30.05R
PIPESTONE      CLOUDY    37  36  93 NE9       30.03R
WINDOM         CLOUDY    39  37  93 CALM      30.03R
WORTHINGTON    CLOUDY    39  36  89 N9        30.03R
JACKSON        CLOUDY    41  36  81 N9        30.02R
TRACY          CLOUDY    40  38  92 NE9       30.04R
SLAYTON        CLOUDY    38  37  97 NE7       30.04R
$$
MNZ065>067-074>077-082>085-091>093-290000-
   South Central Minnesota

CITY           SKY/WX    TMP DP  RH WIND       PRES   REMARKS
MANKATO        CLOUDY    39  36  87 NE13      30.03R
NEW ULM        CLOUDY    41  39  93 NE5       30.04R
ST JAMES       CLOUDY    36  34  93 NE5       30.04R
FAIRMONT       CLOUDY    39  30  70 NE9       30.01R
GLENCOE        CLOUDY    42  38  87 NE10      30.06R
FARIBAULT      CLOUDY    39  37  93 NE8       30.04R
OWATONNA       DRIZZLE   39  36  87 NE7       30.02R
WASECA         DRIZZLE   39  36  87 NE8       30.03R
ALBERT LEA     CLOUDY    39  39 100 NE9       29.99S
$$
MNZ078>079-086>088-094>096-290000-
   Southeast Minnesota

CITY           SKY/WX    TMP DP  RH WIND       PRES   REMARKS
ROCHESTER      CLOUDY    40  38  93 NE9       30.01R
RED WING       LGT RAIN  41  37  87 E12G22    30.04S
STANTON        CLOUDY    40  37  87 E10G18    30.03R
DODGE CENTER   DRIZZLE   39  37  93 E10       30.01R
WINONA         DRIZZLE   41  39  93 CALM      30.03R
AUSTIN         CLOUDY    41  37  87 NE10      29.99R
PRESTON        CLOUDY    39  36  87 E7        30.00R
$$
ABBREVIATIONS USED IN REMARKS
   TC - TEMPERATURES IN CELSIUS
  WCI - WIND CHILL INDEX
   HX - HEAT INDEX
  VSB - VISIBILITY
$$




USA.gov is the U.S. government's official web portal to all federal, state and local government web resources and services.